Location: Dalton
(34.7700°N, 84.9700°W)
Time: 01:18:13
(UTC-05:00)

OTV 5 (USA 277) - Pass Details

Date: 13 October 2017
Orbit: 404 x 417 km, 43.0° (Epoch: 07 September)

Event Time Altitude Azimuth Distance (km) Brightness Sun altitude
Rises 20:22:08 0° 280° (W) 2,351 ? -16.1°
Reaches altitude 10° 20:24:33 10° 295° (WNW) 1,489 ? -16.6°
Maximum altitude 20:27:17 23° 350° (N) 948 ? -17.2°
Enters shadow 20:28:29 19° 21° (NNE) 1,073 ? -17.4°
